Flag for Pakistan Weather past 2 weeks in Islamabad, Pakistan

Now
91 °F

Passing clouds.


Feels Like: 88 °F
Forecast: 64 / 100 °F
Wind: 18 mph from Northwest

Location: Islamabad Airport

Current Time: May 26, 2015 at 1:56:56 PM

Latest Report: May 26, 2015 at 1:00 PM


Visibility: N/A

Pressure: 29.71 "Hg

Humidity: 23%

Dew point: 48 °F

Location of IslamabadLocation

Historic Weather in Islamabad — Graph

°F

Islamabad temperature yesterday

Maximum temperature yesterday: 99 °F (at 3:00 PM)
Minimum temperature yesterday: 73 °F (at 5:00 AM)
Average temperature yesterday: 83 °F

Past Weeks' High & Low Weather Summary

 TemperatureHumidityPressure
High100 °F (May 22, 3:00 PM)94% (May 17, 12:00 PM)29.95 "Hg (May 17, 12:00 PM)
Low66 °F (May 13, 12:00 AM)18% (May 22, 3:00 PM)29.50 "Hg (May 25, 5:00 PM)
Average81 °F51%29.74 "Hg
* Reported May 11 1:00 PM — May 26 1:00 PM, Islamabad, Weather by CustomWeather, © 2015

Note: Actual official high and low records may vary slightly from our data, if they occured in-between our weather recording intervals... More about our weather records

Advertising

Islamabad weather history for previous 24 hours

 ConditionsComfort  
Time TempWeatherWind HumidityBarometerVisibility
1:00 PM
Tue, May 26
91 °FPassing clouds.18 mph23%29.71 "HgN/A
12:00 PM88 °FPassing clouds.18 mph24%29.71 "HgN/A
11:00 AM88 °FClear.18 mph25%29.71 "HgN/A
10:00 AM86 °FHaze.18 mph27%29.71 "Hg4 mi
9:00 AM81 °FHaze.5 mph42%29.71 "Hg3 mi
8:00 AM77 °FHaze.5 mph44%29.71 "Hg3 mi
5:00 AM68 °FHaze.6 mph69%29.65 "Hg3 mi
4:00 AM70 °FHaze.No wind69%29.65 "Hg3 mi
3:00 AM70 °FHaze.No wind69%29.65 "Hg3 mi
2:00 AM72 °FHaze.No wind69%29.65 "Hg3 mi
1:00 AM72 °FHaze.5 mph69%29.65 "Hg3 mi
12:00 AM73 °FPassing clouds.9 mph61%29.68 "Hg3 mi
11:00 PM
Mon, May 25
75 °FThundershowers. Partly cloudy.21 mph57%29.65 "Hg3 mi
10:00 PM73 °FThundershowers. Partly cloudy.29 mph61%29.65 "Hg3 mi
9:00 PM75 °FThunderstorms. Partly cloudy.35 mph57%29.68 "Hg3 mi
8:00 PM81 °FThunderstorms. Partly cloudy.23 mph42%29.62 "Hg3 mi
7:00 PM82 °FThunderstorms. Broken clouds.23 mph45%29.59 "Hg3 mi
6:00 PMN/ABroken clouds.14 mphN/A29.56 "Hg3 mi
5:00 PM93 °FThunderstorms. Broken clouds.9 mph32%29.50 "Hg4 mi
4:00 PM97 °FScattered clouds.14 mph19%29.53 "HgN/A
3:00 PM99 °FScattered clouds.14 mph21%29.56 "HgN/A
2:00 PM95 °FPassing clouds.9 mph22%29.59 "HgN/A
1:00 PM93 °FScattered clouds.9 mph24%29.62 "HgN/A
Weather by CustomWeather, © 2015

See weather overviewHow to use our weather pages